Temp
13 14 13 12 13 12 12 12 11 11 11 10 10 9 9 9 9 9 8 8 8 8 8 7 7 7 7 7 7 7 7 7 7 7 7 7 6 7 7 7 7 6 6
13 13 13 12 12 12 12 11 11 11 10 10 10 9 9 8 8 8 8 8 8 8 7 7 7 7 7 7 7 7 7 7 6 6 6 6 6 7 6 6 6 6 6
13 13 12 12 12 12 12 11 11 11 10 10 10 9 9 8 8 8 8 8 8 8 7 7 7 7 7 7 7 7 7 7 6 6 6 6 6 6 6 6 6 6 6
12 12 12 12 12 12 12 11 11 11 10 10 10 10 10 9 8 8 8 8 8 7 7 7 7 7 7 7 7 6 6 6 6 6 6 6 6 6 6 6 6 6 6
11 12 12 11 12 12 12 11 11 11 11 10 10 10 10 9 9 8 8 8 7 7 7 7 7 7 7 6 6 6 6 6 6 6 5 6 6 6 6 6 6 6 6
11 11 12 11 11 12 11 11 11 11 10 10 10 10 9 9 9 8 8 7 7 7 7 7 6 6 6 6 6 6 6 6 5 6 6 6 6 6 6 5 6 6 6
11 11 11 11 11 11 11 11 11 10 10 10 10 10 9 9 9 9 8 7 7 7 7 6 6 6 6 6 6 6 6 5 5 6 6 6 5 6 5 5 5 6 5
10 11 11 11 11 10 10 10 10 10 10 10 10 9 9 9 9 9 8 8 7 7 7 6 6 6 5 6 6 5 5 5 5 5 5 5 5 5 5 5 5 5 5
10 10 10 10 10 10 10 10 10 10 10 9 9 9 9 9 9 9 8 8 7 7 7 6 6 5 5 5 5 5 5 5 5 5 5 5 5 5 5 5 5 5 5
10 10 10 10 10 10 10 10 10 10 9 9 9 9 9 9 9 8 8 8 8 7 7 6 6 5 5 5 5 5 5 4 5 4 4 4 3 4 5 5 4 5 5
10 10 10 9 10 9 9 10 9 9 9 9 9 9 9 9 8 8 8 8 8 7 7 6 6 6 5 5 4 4 4 4 4 4 4 4 2 3 4 4 4 4 4
10 9 9 9 9 9 9 9 9 9 9 9 9 9 9 8 8 8 8 8 8 7 7 7 6 6 5 5 5 4 4 4 4 4 4 3 3 3 3 3 3 4 4
9 9 8 8 8 8 9 9 9 9 9 9 9 8 8 8 8 8 8 8 7 7 7 7 6 6 5 5 5 4 4 4 4 4 3 4 3 3 3 2 3 4 4
8 8 8 8 7 8 8 8 8 8 8 8 8 8 8 8 8 8 8 7 7 7 7 7 7 6 5 5 4 4 4 4 4 3 3 3 3 3 3 3 3 3 3
7 7 7 7 7 7 7 8 8 8 8 8 8 8 8 8 8 7 7 7 7 7 7 7 7 6 6 5 4 4 4 3 3 3 3 3 3 3 3 3 3 3 3
7 7 7 7 7 7 7 7 7 7 7 7 8 7 7 7 7 7 7 7 7 7 7 6 7 6 6 5 5 4 4 4 4 3 3 3 3 3 2 3 3 3 3
6 6 6 6 7 7 7 7 7 7 7 7 7 7 7 7 7 7 7 7 7 7 6 6 6 6 6 5 5 4 4 3 4 4 3 3 3 3 2 4 3 3 3
5 6 6 6 6 6 6 6 6 6 6 6 6 6 6 6 6 6 6 6 7 6 6 6 6 6 6 5 4 4 3 3 3 4 3 3 3 3 2 4 3 3 3
5 5 5 6 6 6 6 6 6 6 6 6 6 6 6 6 6 7 6 6 6 6 6 6 6 6 6 5 4 4 3 3 3 3 3 4 3 3 3 2 2 2 2
4 4 5 4 5 5 6 6 6 6 6 6 6 6 6 6 6 6 6 6 6 6 6 6 6 6 5 5 4 3 2 3 3 3 3 2 2 2 2 2 2 2 2
4 5 4 4 4 4 4 5 5 6 6 6 6 6 6 6 6 6 5 5 5 6 6 6 5 5 5 5 4 4 3 3 3 3 2 2 1 2 3 2 2 2 2
3 4 4 5 4 4 4 4 4 4 5 6 6 6 6 6 6 6 5 5 5 5 5 5 5 5 5 5 4 2 2 2 2 2 2 2 1 2 2 2 2 2 2
4 4 4 5 5 4 4 4 4 4 4 5 5 6 6 6 5 6 5 4 5 5 5 5 5 5 5 4 4 3 2 2 2 2 1 1 1 1 2 2 2 2 2
4 4 4 4 4 3 3 3 4 4 4 5 5 5 6 5 5 5 5 5 4 5 5 5 4 4 4 4 4 4 2 2 2 2 1 2 1 1 1 1 1 1 2
3 3 4 3 3 3 3 3 3 4 4 4 5 5 5 5 5 5 5 4 3 3 4 5 4 4 4 4 4 4 2 2 2 1 2 2 2 2 2 1 2 1 1
1 1 2 2 2 1 3 3 3 4 4 4 5 5 5 5 5 5 4 4 4 4 4 3 4 4 3 3 4 3 1 2 2 2 2 2 2 2 1 1 1 2 2
Height
3148 3148 3150 3152 3153 3154 3155 3155 3156 3156 3156 3156 3157 3158 3158 3159 3160 3159 3159 3159 3160 3160 3161 3162 3163 3164 3165 3166 3166 3167 3167 3168 3168 3169 3169 3170 3170 3170 3170 3171 3171 3172 3172
3145 3147 3149 3150 3152 3153 3154 3154 3154 3155 3155 3155 3156 3157 3158 3159 3159 3159 3159 3158 3159 3160 3160 3161 3163 3163 3164 3165 3165 3166 3166 3167 3168 3168 3169 3170 3170 3171 3171 3171 3171 3172 3172
3143 3145 3147 3148 3150 3151 3153 3154 3154 3153 3154 3155 3155 3155 3156 3157 3158 3158 3158 3158 3158 3159 3160 3160 3162 3163 3164 3164 3164 3165 3166 3166 3167 3168 3168 3168 3169 3170 3170 3171 3171 3172 3172
3140 3143 3145 3147 3148 3150 3152 3153 3153 3153 3153 3153 3154 3154 3155 3155 3156 3156 3157 3158 3158 3158 3158 3159 3160 3162 3163 3163 3163 3163 3164 3165 3165 3166 3167 3167 3168 3169 3170 3170 3171 3172 3173
3137 3140 3143 3145 3147 3148 3150 3151 3152 3152 3152 3152 3153 3153 3154 3154 3154 3154 3155 3156 3157 3157 3158 3158 3159 3160 3161 3162 3162 3163 3163 3164 3164 3165 3166 3166 3167 3168 3169 3170 3171 3171 3172
3135 3137 3139 3142 3145 3147 3148 3149 3150 3150 3151 3151 3152 3152 3152 3152 3152 3152 3153 3154 3155 3155 3156 3157 3158 3158 3159 3160 3160 3161 3162 3163 3164 3164 3164 3165 3166 3166 3169 3169 3170 3171 3171
3133 3134 3136 3138 3141 3144 3146 3147 3148 3148 3149 3149 3150 3151 3151 3151 3151 3151 3151 3152 3153 3153 3154 3155 3156 3157 3157 3159 3159 3160 3161 3161 3162 3162 3162 3163 3164 3165 3166 3168 3169 3170 3170
3130 3132 3134 3136 3137 3139 3143 3145 3146 3146 3147 3148 3148 3149 3149 3150 3150 3149 3149 3150 3150 3151 3152 3153 3153 3154 3155 3157 3157 3158 3158 3160 3160 3160 3160 3161 3162 3164 3164 3166 3167 3168 3170
3127 3128 3131 3133 3134 3135 3138 3142 3143 3144 3145 3145 3146 3146 3146 3147 3148 3147 3147 3147 3148 3149 3149 3150 3151 3151 3152 3154 3155 3156 3156 3157 3158 3158 3157 3157 3161 3162 3163 3164 3166 3167 3168
3122 3123 3125 3127 3129 3131 3133 3136 3138 3140 3141 3142 3143 3143 3144 3144 3145 3145 3145 3145 3145 3145 3146 3146 3148 3148 3149 3150 3152 3153 3153 3153 3154 3154 3155 3154 3156 3158 3160 3161 3163 3165 3166
3117 3118 3120 3122 3125 3127 3129 3131 3134 3135 3137 3138 3139 3141 3141 3141 3142 3142 3142 3142 3143 3142 3143 3143 3144 3145 3146 3146 3148 3149 3149 3149 3150 3149 3150 3150 3151 3154 3156 3158 3160 3163 3164
3111 3113 3115 3118 3120 3122 3124 3127 3129 3130 3132 3134 3135 3137 3137 3138 3138 3138 3137 3138 3139 3139 3138 3139 3140 3140 3142 3142 3143 3144 3144 3145 3145 3144 3145 3146 3147 3149 3152 3153 3157 3159 3162
3105 3106 3108 3112 3115 3117 3119 3121 3123 3125 3127 3128 3130 3132 3133 3134 3135 3135 3135 3134 3134 3135 3135 3136 3136 3136 3137 3138 3139 3140 3140 3140 3140 3140 3141 3140 3142 3145 3146 3147 3153 3156 3159
3100 3102 3103 3104 3106 3109 3112 3115 3117 3119 3121 3123 3125 3126 3128 3129 3130 3130 3131 3131 3131 3131 3131 3131 3132 3132 3133 3133 3134 3135 3135 3135 3135 3135 3136 3134 3136 3140 3142 3143 3150 3153 3156
3095 3096 3097 3098 3101 3102 3104 3107 3110 3113 3115 3117 3119 3121 3122 3123 3125 3125 3126 3126 3127 3127 3127 3127 3127 3128 3128 3129 3130 3130 3131 3131 3130 3130 3131 3130 3132 3135 3138 3138 3145 3149 3152
3089 3090 3092 3094 3095 3096 3098 3101 3104 3106 3108 3110 3112 3115 3116 3118 3119 3120 3121 3122 3122 3123 3123 3123 3123 3123 3124 3124 3124 3125 3126 3126 3126 3125 3127 3127 3129 3130 3135 3138 3141 3144 3148
3082 3084 3085 3087 3088 3089 3092 3094 3094 3097 3100 3101 3104 3108 3110 3111 3113 3114 3115 3116 3117 3118 3119 3119 3118 3118 3118 3119 3119 3120 3120 3120 3120 3120 3120 3122 3123 3124 3129 3128 3136 3139 3143
3075 3077 3078 3078 3080 3082 3084 3087 3088 3089 3091 3093 3096 3098 3101 3103 3106 3107 3108 3110 3112 3112 3114 3114 3113 3113 3113 3114 3115 3115 3115 3115 3113 3114 3114 3114 3119 3120 3119 3102 3126 3133 3139
3066 3068 3070 3070 3071 3072 3074 3076 3077 3081 3082 3084 3087 3089 3092 3095 3098 3099 3101 3103 3105 3106 3108 3109 3109 3108 3108 3108 3109 3110 3109 3109 3108 3107 3108 3106 3108 3116 3114 3116 3126 3130 3134
3057 3058 3058 3060 3061 3062 3063 3065 3066 3067 3071 3074 3077 3080 3084 3087 3089 3091 3092 3095 3098 3100 3102 3103 3104 3103 3103 3103 3103 3104 3105 3104 3103 3103 3101 3097 3104 3109 3111 3116 3121 3125 3130
3049 3048 3048 3049 3050 3050 3050 3051 3052 3054 3059 3064 3066 3071 3073 3076 3081 3083 3085 3087 3090 3094 3096 3097 3098 3098 3098 3098 3098 3098 3099 3099 3099 3099 3098 3098 3101 3103 3105 3112 3117 3123 3126
3039 3037 3037 3038 3036 3037 3036 3038 3039 3042 3046 3049 3054 3057 3063 3067 3072 3075 3077 3080 3083 3086 3089 3091 3092 3093 3093 3092 3093 3094 3094 3095 3094 3095 3095 3094 3097 3098 3103 3109 3114 3118 3122
3033 3029 3025 3024 3022 3019 3022 3024 3027 3032 3034 3035 3039 3046 3053 3057 3062 3066 3069 3072 3074 3078 3081 3084 3086 3087 3088 3088 3088 3088 3088 3088 3090 3091 3092 3093 3094 3095 3100 3105 3110 3114 3117
3021 3017 3012 3008 3007 3007 3008 3009 3013 3018 3022 3028 3034 3038 3043 3046 3051 3057 3061 3062 3064 3068 3073 3076 3079 3081 3081 3082 3082 3082 3083 3083 3085 3087 3089 3090 3091 3094 3096 3100 3103 3106 3111
3010 3006 3002 2997 2995 2996 2996 2998 3001 3007 3014 3021 3023 3026 3029 3035 3043 3048 3050 3046 3033 3057 3065 3068 3071 3073 3074 3076 3076 3076 3077 3077 3080 3082 3084 3086 3087 3091 3093 3096 3097 3101 3104
3003 2996 2990 2987 2986 2984 2986 2988 2991 2997 3006 3010 3014 3016 3019 3024 3031 3038 3041 3040 3043 3049 3057 3062 3065 3065 3067 3069 3069 3068 3070 3071 3074 3077 3078 3081 3083 3086 3087 3090 3092 3095 3098
Wind_Speed
7 6 13 12 12 10 8 5 5 7 7 6 4 4 5 5 7 9 10 5 5 5 5 6 6 6 5 6 8 8 7 8 8 9 7 6 6 5 7 8 8 8 8
9 7 10 14 15 12 9 7 6 6 6 5 4 3 3 3 6 7 8 6 6 5 6 7 8 7 6 6 7 8 8 8 9 9 7 6 6 5 7 8 9 9 8
5 6 10 16 17 15 12 9 6 5 5 5 4 2 1 1 4 6 8 6 5 6 7 8 9 9 7 7 8 9 9 8 9 9 8 9 7 6 9 10 10 10 10
4 5 9 16 17 16 15 12 8 7 6 4 3 3 2 3 4 6 8 7 5 6 8 9 10 9 9 8 9 9 9 9 8 9 10 11 7 6 10 11 11 10 10
8 6 7 17 20 17 17 15 11 9 6 4 3 3 4 3 5 6 8 8 7 7 9 10 10 10 10 10 10 11 11 11 10 10 12 12 9 9 12 12 12 12 11
10 9 11 16 20 18 19 16 13 10 8 6 5 7 7 6 6 8 9 9 9 9 9 9 10 11 11 12 11 12 12 14 13 12 12 12 10 10 12 14 13 12 13
13 13 13 16 21 21 22 19 15 12 9 10 10 10 10 10 9 10 10 10 11 10 11 10 11 12 12 12 12 12 13 14 14 14 14 13 11 12 14 16 14 15 15
17 17 16 17 20 25 24 21 17 12 11 14 13 12 12 13 11 11 11 11 12 12 12 12 12 13 12 12 13 13 14 16 17 17 15 14 13 13 16 17 17 17 16
22 20 20 21 22 26 25 22 20 16 16 15 16 15 15 15 14 13 13 12 13 13 14 14 15 15 13 14 14 14 15 16 19 21 18 15 20 18 19 20 19 18 18
26 23 25 26 26 28 27 25 22 21 20 19 18 17 18 17 16 14 14 14 14 14 14 15 16 17 16 17 16 16 17 18 19 20 26 25 21 19 22 22 20 20 19
33 29 29 30 30 30 28 26 23 23 22 21 20 19 20 20 16 15 15 15 16 16 16 16 17 19 19 19 18 20 19 21 22 20 19 30 28 20 25 24 23 21 19
33 32 31 31 32 31 31 27 25 26 25 23 21 20 21 20 18 17 14 16 18 17 17 18 18 20 20 19 20 22 21 20 20 20 17 22 29 23 27 29 25 23 21
31 32 33 33 33 33 33 29 28 26 27 26 23 21 23 21 19 20 17 17 18 18 18 18 18 20 21 20 21 23 21 21 20 20 20 21 30 26 28 30 26 24 23
29 33 35 37 37 36 36 33 33 34 31 28 26 24 24 23 21 22 20 19 19 20 20 20 19 21 22 22 23 23 22 22 23 22 22 22 35 28 27 31 26 25 24
29 33 36 36 37 38 38 36 35 34 33 32 31 28 27 26 25 24 22 22 20 21 21 21 20 21 22 22 24 25 24 23 24 23 22 21 36 29 29 26 27 27 26
32 34 38 41 38 39 40 37 35 36 33 35 34 31 30 29 28 28 25 24 22 22 20 21 21 23 23 24 25 25 24 24 23 26 23 23 37 32 34 32 30 29 26
35 35 35 37 43 45 42 40 39 39 38 38 36 36 35 32 31 31 30 28 25 23 21 21 22 25 25 25 26 26 26 23 24 24 25 30 42 39 40 34 33 29 26
27 34 40 42 42 45 46 45 44 43 43 40 38 37 38 36 35 35 35 32 29 27 23 21 21 24 26 25 26 26 24 24 24 24 22 29 37 41 45 40 32 29 27
28 29 31 37 43 49 47 49 50 51 50 47 43 40 38 39 38 36 38 35 32 30 25 23 21 23 25 25 27 26 24 24 24 23 26 30 36 43 25 27 30 28 25
29 31 33 34 39 41 46 51 52 53 58 54 51 45 40 43 39 38 38 38 35 32 29 25 22 21 23 24 27 27 27 24 23 24 27 33 41 33 33 26 22 23 23
31 34 36 37 38 44 47 49 50 54 58 57 56 52 54 51 41 39 38 37 37 34 31 27 24 23 23 24 28 28 28 25 26 25 19 20 26 31 32 28 28 27 26
32 37 38 38 42 42 52 53 51 48 47 55 58 56 56 52 45 40 39 37 38 35 34 30 27 25 23 25 29 27 32 26 29 24 17 18 30 31 30 30 27 26 25
29 35 40 39 46 49 46 56 55 50 49 48 52 60 56 56 47 41 40 38 39 37 35 33 30 27 25 26 28 31 34 31 28 27 23 21 26 33 36 30 31 30 29
32 34 35 39 40 42 43 50 57 54 52 48 40 44 57 58 52 43 40 42 42 40 37 35 32 30 28 28 30 32 33 33 27 28 24 23 22 20 23 30 30 30 33
35 35 33 36 38 42 38 43 53 53 48 41 41 40 51 58 51 48 50 56 39 32 40 39 35 31 30 31 32 34 33 33 35 31 26 25 29 25 23 27 26 29 35
31 38 39 30 27 29 35 38 43 49 44 40 40 41 41 51 53 50 47 49 41 40 54 41 37 33 33 34 33 33 35 32 33 30 33 27 28 29 25 25 31 32 33
Wind_Direction
254 219 227 233 228 213 193 172 145 127 107 92 68 55 31 8 355 349 344 335 313 282 251 240 242 238 245 245 238 238 238 235 233 234 246 239 211 206 188 177 165 163 156
208 225 227 227 228 221 211 195 175 149 132 115 82 66 43 355 346 346 346 329 309 280 250 240 244 251 260 261 257 245 241 237 233 235 246 227 239 216 196 189 178 171 168
208 226 227 230 226 224 223 216 212 176 153 145 142 114 91 293 313 328 337 333 305 278 257 247 246 248 259 272 261 257 248 235 232 238 238 229 235 214 198 197 189 181 176
197 233 238 237 230 230 230 229 232 211 180 167 181 186 203 261 285 301 318 320 301 266 258 254 250 252 250 262 254 250 244 226 222 234 233 235 242 223 211 201 195 189 183
166 180 226 237 232 234 233 237 249 231 215 207 211 230 226 246 273 280 296 299 292 266 257 255 254 252 248 252 250 246 235 228 231 240 236 240 239 216 214 207 200 194 190
177 182 199 225 231 235 236 239 247 238 236 243 260 254 242 237 262 273 276 281 281 269 260 255 250 248 251 254 250 248 239 231 232 240 242 241 240 213 232 216 203 198 191
190 193 200 205 219 231 233 237 233 236 248 248 260 265 260 255 261 269 273 273 269 266 262 257 250 251 250 256 256 252 244 235 232 235 235 236 238 229 214 219 206 199 195
202 204 210 212 216 223 229 230 229 233 252 254 258 260 263 262 261 265 269 268 265 265 263 257 253 253 249 251 256 253 249 245 239 237 234 234 242 234 224 216 208 201 199
209 207 219 224 222 225 225 226 228 235 245 252 256 257 260 261 259 265 266 268 265 261 257 257 254 252 245 249 252 253 251 249 246 245 231 244 244 236 223 216 209 204 203
218 218 221 225 225 228 223 221 225 233 244 250 251 254 258 259 257 265 270 271 267 260 258 257 253 251 248 249 250 248 246 250 244 236 253 247 228 229 222 215 209 208 206
228 223 222 224 227 229 224 221 229 233 238 243 243 252 256 260 260 263 270 273 272 264 258 254 254 253 250 250 251 247 245 244 260 247 271 258 225 229 221 212 209 209 210
226 222 225 227 230 230 225 225 232 234 237 238 239 252 257 258 261 267 269 271 276 271 262 256 252 254 250 249 254 247 245 257 255 263 265 265 219 229 218 210 207 208 211
228 221 222 227 230 229 226 229 237 237 240 237 235 248 255 254 263 271 273 272 273 271 265 261 257 253 254 251 251 255 250 248 253 262 255 268 217 227 220 211 206 207 212
232 226 223 223 225 226 228 230 237 239 240 239 239 244 251 252 257 264 270 275 273 272 267 261 258 255 254 250 249 251 249 250 260 261 254 266 216 222 218 205 207 209 213
236 230 229 230 231 228 227 230 236 238 240 238 239 242 244 247 253 258 262 270 270 268 267 263 259 254 252 250 249 249 250 254 261 259 254 249 214 220 219 213 209 211 215
237 237 232 232 234 234 230 232 235 236 237 241 240 240 241 244 249 255 259 263 265 265 265 263 261 255 250 250 249 251 250 250 258 257 260 243 219 223 215 215 211 212 218
241 242 242 239 236 237 238 233 228 233 232 235 237 241 241 243 246 251 255 260 260 257 259 261 264 260 251 251 253 252 252 252 257 259 262 238 219 225 220 208 209 211 218
250 242 243 245 244 245 243 242 236 236 233 233 233 236 239 240 241 245 250 252 256 253 252 259 266 266 258 252 252 256 257 257 257 254 255 236 224 224 225 191 198 206 213
264 261 254 251 247 246 245 245 245 240 241 237 236 235 236 239 238 246 248 248 250 249 248 256 266 269 261 253 251 252 251 257 258 247 263 231 217 217 217 197 205 211 215
266 262 258 253 253 252 250 247 246 242 241 238 238 234 236 237 239 247 247 245 243 245 246 251 262 269 262 253 250 249 248 249 252 253 264 231 204 217 203 204 216 225 220
269 266 264 261 254 247 243 243 244 244 242 241 242 241 233 238 238 246 244 244 238 242 245 249 254 264 265 255 250 247 242 243 244 246 251 238 216 225 203 206 217 227 234
287 281 273 265 260 251 243 239 241 240 242 242 239 237 234 239 238 246 244 244 237 239 243 246 253 261 269 259 255 249 246 245 239 245 240 214 226 209 207 209 217 226 231
288 287 279 273 265 256 250 238 239 241 239 239 240 237 234 236 238 241 242 242 235 235 240 245 248 255 267 265 259 253 240 243 242 240 245 234 245 216 209 223 225 224 231
304 300 289 275 265 253 255 242 236 239 241 243 248 249 238 235 235 235 240 246 235 231 236 241 246 251 260 267 261 254 244 245 240 245 241 225 237 236 234 223 228 228 236
317 309 295 283 263 251 252 251 236 238 241 244 242 245 240 234 234 234 243 237 224 228 241 238 241 251 260 267 264 254 243 244 238 237 243 250 237 241 244 242 245 251 244
320 314 304 286 267 260 249 244 240 235 236 242 236 241 239 234 233 231 235 250 247 247 250 248 244 246 255 264 264 254 240 244 244 242 241 237 238 245 242 244 250 243 243